Regional Weather Roundup
Issued by NWS

Home | Current Version | Previous Version | Text Only | Print | Product List | Glossary Off
Versions: 1 2 3 4 5 6 7 8 9 10 11 12 13 14 15 16 17 18 19 20 21 22 23 24 25 26 27 28 29 30 31 32 33 34 35 36 37 38 39 40 41 42 43 44 45 46 47 48 49 50

000
ASUS43 KLSX 191607
RWRMO

WEATHER SUMMARY FOR MISSOURI
NATIONAL WEATHER SERVICE SPRINGFIELD MO
1100 AM CDT SAT APR 19 2014

NOTE: "FAIR" INDICATES FEW OR NO CLOUDS BELOW 12,000 FEET WITH NO
       SIGNIFICANT WEATHER AND/OR OBSTRUCTIONS TO VISIBILITY.
       CURRENT SKY AND/OR WEATHER CONDITIONS ARE NOT AVAILABLE FOR
       CHILLICOTHE AND FARMINGTON.

MOZ001>031-035>038-043-044-053-054-191700-
...NORTHERN AND WESTERN MISSOURI...

CITY           SKY/WX    TMP DP  RH WIND       PRES   REMARKS
KANSAS CTY INT PTSUNNY   71  45  39 S15       30.15S
KANSAS C DTWN  MOSUNNY   72  47  40 S10       30.15S
LEE`S SUMMIT   MOSUNNY   69  46  43 S15       30.17S
ST JOSEPH      MOSUNNY   71  42  35 S20G29    30.13F
CHILLICOTHE      N/A     69  45  41 S13G22    30.19S
KIRKSVILLE     SUNNY     68  43  40 S15G22    30.22S

$$
MOZ066>068-077>081-088>096-101>105-191700-
...SOUTHWEST MISSOURI...

CITY           SKY/WX    TMP DP  RH WIND       PRES   REMARKS
SPRINGFIELD    SUNNY     68  47  46 SE14      30.23F
JOPLIN         MOSUNNY   69  47  45 SW10      30.22R

$$
MOZ032>034-039>042-045>050-055>058-069>072-191700-
...CENTRAL MISSOURI...

CITY           SKY/WX    TMP DP  RH WIND       PRES   REMARKS
COLUMBIA       SUNNY     69  44  40 SE14      30.24F
JEFFERSON CITY SUNNY     69  43  38 S10       30.23F
ROLLA          SUNNY     67  43  41 SE6       30.24F
SEDALIA        SUNNY     70  47  43 S15       30.22S
WHITEMAN AFB   SUNNY     68  46  45 S13       30.20S
OSAGE BEACH    SUNNY     70  43  37 S9G16     30.25F

$$
MOZ051-052-059>065-191700-
...EAST CENTRAL MISSOURI...

CITY           SKY/WX    TMP DP  RH WIND       PRES   REMARKS
ST LOUIS INTL  MOSUNNY   66  41  40 E7        30.29F
SPIRIT OF STL  SUNNY     67  44  43 E9        30.28F
ST CHARLES     SUNNY     65  43  44 SE10      30.29S

$$
MOZ072>076-082>087-097>100-106>115-191700-
...SOUTH CENTRAL AND SOUTHEAST MISSOURI...

CITY           SKY/WX    TMP DP  RH WIND       PRES   REMARKS
CAPE GIRARDEAU SUNNY     70  47  43 CALM      30.26S
FARMINGTON     SUNNY     66  45  45 E7        30.30S
POPLAR BLUFF   SUNNY     69  44  40 NE3       30.25S
WEST PLAINS    SUNNY     67  41  38 S8        30.27S

$$



USA.gov is the U.S. government's official web portal to all federal, state and local government web resources and services.